Content
SEND FEEDBACK

Daily
Averages
Monthly
Summary
United States of America

IOWA CITY, IOWA


Home > North America > United States > Iowa
Elevation: 661 feet     Latitude: 41 38N     Longitude: 091 32W

WEATHER
 
SELECT A DAY
Number of Records: 194,063;   Date Range: 7/1/96 - 12/19/14
 
SHARE

PRINT THIS DATA

[ ← Previous Day ]
WEATHER ALMANAC - FEBRUARY 13, 2013
[ Next Day → ]
[ °C ]   °F
Weather ElementAverageHighLow
Temperature34.5 °F45 °F (3:52 pm)24.1 °F (6:52 am)
Dewpoint27.3 °F30.9 °F (4:52 pm)21 °F (6:52 am)
Humidity75.8 %88 % (4:52 am)56 % (3:52 pm)
Barometer29.80 in29.88 in (1:52 am)29.69 in (11:52 pm)
Wind Speed4.8 mph10.4 mph (11:52 am)
Weather ElementAverage
Visibility10 mi
Wind DirectionSSE (168.7 °)

Weather ElementTotal
Precipitation---
Heating Degree Days30.5 (Base 65)
Averaged from 23 records on February 13, 2013
WEATHER CONDITIONS BREAKOUT
WIND DIRECTION BREAKOUT
WEATHER BY HOUR - FEBRUARY 13, 2013
[ °C ]   °F
Local TimeTemperatureDewpointHumidityBarometerVisibilityWind DirectionWind SpeedGust SpeedPrecipitationEventsConditions
1:52 AM28.9 °F24.1 °F82 %29.88 in10.0 miCalmClear
2:52 AM28.0 °F24.1 °F85 %29.86 in10.0 miCalmClear
3:52 AM28.0 °F24.1 °F85 %29.84 in10.0 miWest (260°)3.5 mphClear
4:52 AM25.0 °F21.9 °F88 %29.83 in10.0 miWest (280°)3.5 mphClear
5:52 AM25.0 °F21.9 °F88 %29.83 in10.0 miCalmClear
6:52 AM24.1 °F21.0 °F88 %29.83 in10.0 miWest (270°)4.6 mphClear
7:52 AM26.1 °F23.0 °F88 %29.84 in10.0 miCalmClear
8:52 AM30.0 °F26.1 °F85 %29.83 in10.0 miWest (260°)5.8 mphClear
9:52 AM33.1 °F27.0 °F78 %29.84 in10.0 miWest (270°)9.2 mphClear
10:52 AM36.0 °F28.0 °F73 %29.83 in10.0 miWSW (250°)4.6 mphClear
11:52 AM37.9 °F28.9 °F70 %29.82 in10.0 miWSW (240°)10.4 mphClear
12:52 PM39.9 °F30.0 °F68 %29.81 in10.0 miWSW (250°)9.2 mphClear
1:52 PM43.0 °F30.0 °F60 %29.79 in10.0 miWSW (250°)10.4 mphClear
2:52 PM44.1 °F30.0 °F58 %29.78 in10.0 miWest (260°)9.2 mphClear
3:52 PM45.0 °F30.0 °F56 %29.78 in10.0 miWest (270°)8.1 mphClear
4:52 PM44.1 °F30.9 °F60 %29.78 in10.0 miSW (230°)8.1 mphMostly Cloudy
5:52 PM37.9 °F30.0 °F73 %29.78 in10.0 miSouth (190°)4.6 mphPartly Cloudy
6:52 PM37.0 °F30.0 °F76 %29.78 in10.0 miCalmClear
7:52 PM34.0 °F28.9 °F82 %29.77 in10.0 miCalmMostly Cloudy
8:52 PM34.0 °F30.0 °F85 %29.75 in10.0 miCalmOvercast
9:52 PM36.0 °F30.0 °F79 %29.73 in10.0 miSouth (190°)3.5 mphOvercast
10:52 PM37.9 °F28.9 °F70 %29.70 in10.0 miSouth (190°)8.1 mphOvercast
11:52 PM39.0 °F28.9 °F67 %29.69 in10.0 miSW (220°)8.1 mphOvercast
Hourly data recorded from KIOW, located miles away from Iowa City, Iowa







STORIES FROM OUR PARTNERS